Weather in Rakpas

Russia / Komi Republic     62°40′52″N   51°06′48″E
temp.,
°C
wind,
m/s
gust,
m/s
humid.,
%
clouds,
%
prec.,
mm/h
press.,
hPa
HPBL,
m
3 august, tue
tue300:00+13ssw119538 0.0 100811
03:00+13s1197100 0.0 100915
06:00+16sse1388100 0.0 1009113
09:00+23sse355567 0.0 1008800
12:00+27sse57439 0.0 10061588
15:00+28sse584587 0.0 10051567
18:00+22ese41285100 1.9 1003425
21:00+18sse41097100 52.4 1006389
4 august, wed
wed400:00+17ssw3999100 0.0 1006349
03:00+16wnw12986 0.0 100735
06:00+16w12915 0.0 1008153
09:00+21wsw246072 0.0 1009628
12:00+24wsw47416 0.0 10091889
15:00+25sw36375 0.0 10092371
18:00+22sw245797 0.0 1009113
21:00+18w246599 0.0 100983
5 august, thu
thu500:00+15nw31070100 0.0 1011284
03:00+14nw2672100 0.0 1011193
06:00+15nw386929 0.0 1012359
09:00+18nw4649100 0.0 10131041
12:00+18nw4544100 0.0 10141493
15:00+19nw454198 0.0 10141717
18:00+15nw6857100 0.0 1016960
21:00+11nw3871100 0.0 1017375
6 august, fri
fri600:00+10nw388444 0.0 1018372
03:00+8nw289688 0.0 1018244
06:00+11nw3779100 0.0 1019585
09:00+12nnw357198 0.0 1019919
12:00+14nnw3556100 0.0 10191475
15:00+16nne264646 0.0 10181636
18:00+15ene1258100 0.0 1019158
21:00+12wsw1165100 0.0 101924
7 august, sat
sat700:00+11wnw246987 0.0 1019115
03:00+8wnw238124 0.0 101957
06:00+12nw246632 0.0 1020212
09:00+16nw34465 0.0 10191553
12:00+18wnw4542100 0.0 10192211
15:00+17nw354395 0.0 10191470
18:00+16w135718 0.0 1019109
21:00+13ene256744 0.0 1020151